SCP
-0 -0 0 0 -0 0 0 -0 -0 -0 -0 -0 -0 -0 -0 -0 -0 -0 0 -0 -0 0 0 -0 0 0 0 0 0 0 0 0 0 0 0 -0 0 0 0 0 0 0 0 0 -0
-0 0 0 0 0 -0 -0 -0 -0 -0 -0 -0 -0 -0 -0 -0 0 0 -0 -0 -0 0 0 -0 -0 0 0 0 -0 0 0 -0 0 0 0 0 0 0 0 0 0 0 0 0 -0
-0 -0 -0 -0 -0 -0 -0 -0 -0 -0 -0 -0 -0 -0 -0 0 0 -0 0 -0 -0 0 0 0 0 0 0 0 0 0 -0 0 0 -0 0 0 0 -0 0 0 0 0 0 1 1
-0 -0 -0 -0 -0 -0 -0 -0 -0 -0 -0 -0 -0 -0 -0 -0 0 0 0 -0 0 0 0 -0 -0 0 0 0 0 0 0 0 0 -0 -0 0 -0 -0 -0 -0 0 0 0 0 1
-0 -0 -0 -0 -0 -0 -0 -0 -0 -0 -0 -0 -0 -0 0 0 -0 0 -0 0 0 0 -0 0 -0 0 0 0 0 0 0 0 0 0 -0 -0 -0 0 0 0 0 0 0 0 0
-0 -0 -0 -0 -0 -0 -0 -0 -0 -0 -0 -0 -0 -0 0 0 0 0 -0 0 -0 -0 -0 -0 -0 -0 -0 -0 -0 -0 0 0 0 0 0 -0 0 0 0 -0 -0 0 0 0 0
-0 -0 -0 -0 -0 -0 -0 -0 -0 -0 -0 -0 -0 0 0 -0 0 -0 -0 -0 -0 -0 -0 -0 0 0 -0 0 0 0 -0 -0 0 -0 0 0 0 0 0 0 0 0 0 0 0
-0 -0 -0 -0 -0 -0 -0 -0 -0 -0 -0 -0 0 0 -0 -0 0 0 -0 -0 -0 -0 0 -0 0 -0 -0 0 0 -0 -0 -0 0 -0 0 0 0 0 0 0 0 0 0 0 0
-0 -0 -0 -0 -0 -0 -0 -0 -0 -0 0 0 -0 0 -0 -0 0 -0 -0 -0 -0 -0 -0 -0 0 0 0 0 0 0 -0 -0 -0 -0 0 0 0 0 0 0 1 0 0 0 0
-0 -0 -0 -0 -0 -0 -0 -0 0 -0 0 -0 0 -0 -0 0 0 0 -0 -0 -0 -0 0 -0 0 0 0 -0 -0 -0 -0 -0 -0 0 0 0 0 0 0 0 0 0 0 0 0
-0 -0 -0 -0 -0 -0 -0 0 0 0 0 -0 -0 -0 -0 -0 0 0 -0 0 0 0 0 0 0 0 -0 -0 0 -0 0 0 0 0 0 0 0 0 0 0 0 0 0 0 0
-0 -0 -0 -0 -0 -0 0 0 -0 -0 -0 -0 -0 -0 -0 -0 -0 -0 -0 0 0 0 0 0 0 -0 0 0 0 0 0 0 0 -0 0 0 0 0 0 0 0 0 0 0 0
-0 -0 -0 -0 0 -0 0 -0 -0 0 0 -0 -0 -0 -0 -0 0 -0 -0 -0 0 0 -0 -0 0 0 0 0 0 0 0 0 0 -0 0 0 0 0 0 0 0 0 0 0 -0
-0 -0 -0 -0 0 0 -0 -0 -0 -0 0 -0 0 -0 -0 0 0 -0 -0 -0 0 0 -0 0 0 0 0 0 0 0 0 0 -0 -0 -0 0 0 0 0 0 0 0 0 0 0
-0 -0 -0 0 0 0 -0 -0 0 -0 0 0 0 -0 -0 -0 0 0 0 0 0 -0 0 0 0 0 0 0 0 0 0 0 0 0 0 0 0 0 0 0 0 0 0 0 0
-0 -0 -0 0 0 -0 -0 -0 -0 -0 -0 0 -0 -0 -0 0 0 -0 -0 -0 -0 0 -0 0 0 0 0 0 0 0 0 0 0 0 0 0 -0 0 0 0 0 0 0 -0 -0
-0 -0 0 0 0 0 -0 -0 -0 0 -0 -0 -0 0 -0 -0 0 0 0 0 0 0 0 0 0 0 0 0 0 0 0 0 0 0 0 0 0 0 0 0 0 0 0 -0 -0
-0 -0 -0 0 0 -0 0 0 0 -0 -0 0 0 0 0 0 -0 0 0 0 0 0 0 0 0 0 0 0 0 0 0 0 0 0 0 0 0 0 0 0 0 0 -0 0 -0
-0 0 0 0 0 0 0 0 0 0 0 0 0 0 0 -0 0 0 0 0 0 0 0 0 0 0 0 -0 0 0 0 0 0 0 0 0 0 0 0 0 0 0 0 -0 -0
0 0 0 0 0 0 0 0 0 0 0 -0 0 0 0 0 0 0 0 0 0 0 0 0 0 0 0 0 0 0 0 0 0 0 0 0 0 0 0 0 0 0 0 0 0
0 0 -0 0 0 0 0 0 0 0 0 0 0 0 0 0 0 0 0 0 0 0 0 0 0 0 0 0 0 0 0 0 0 0 0 0 0 0 0 0 0 0 0 0 0
0 0 -0 0 0 0 0 0 0 0 0 0 0 0 0 0 0 0 0 0 0 0 0 0 0 0 0 0 0 -0 0 0 0 0 0 0 0 0 0 0 0 0 0 0 0
0 0 -0 0 0 0 0 0 0 0 0 0 0 0 0 0 0 0 0 0 0 0 0 0 0 0 0 0 0 0 0 -0 0 0 0 0 0 0 0 0 0 0 0 0 0
0 0 0 0 0 0 0 0 0 0 0 0 0 0 0 0 0 0 0 0 0 0 0 0 0 0 0 0 0 0 0 0 0 0 0 0 0 0 0 0 0 0 0 0 0
0 0 0 0 0 0 0 0 0 0 0 0 0 0 0 0 0 0 0 0 0 0 0 0 0 0 0 0 0 0 0 0 0 0 0 0 0 0 0 0 0 0 0 0 0
0 0 0 0 0 0 0 0 0 0 0 0 0 0 0 0 0 0 0 0 0 0 0 0 0 0 0 0 0 0 0 0 0 0 0 0 0 0 0 0 0 0 0 0 0
0 0 0 0 0 0 0 0 0 0 0 0 0 0 0 0 0 0 0 0 0 0 0 0 0 0 0 0 0 0 0 0 0 0 0 0 0 0 0 0 0 0 0 0 0
Wind_Speed_500mb
8 10 10 11 11 12 12 13 13 13 15 16 19 22 28 32 27 22 13 6 12 20 17 10 18 22 30 28 35 25 3 10 11 8 13 14 12 34 13 48 10 8 25 40 59
7 6 7 9 10 10 11 12 12 13 14 17 19 23 28 30 24 19 13 15 18 19 15 20 29 39 21 15 9 11 6 15 17 9 6 3 2 29 19 26 23 37 49 66 62
5 5 6 7 8 10 10 11 12 13 14 16 19 23 26 27 23 5 9 16 10 12 16 22 32 30 12 9 19 12 16 17 14 13 11 19 24 15 46 3 52 64 62 58 55
8 7 7 7 8 9 10 11 12 13 14 16 19 20 24 19 3 8 19 14 4 12 18 25 24 30 11 10 24 8 30 42 34 13 13 8 10 36 21 20 44 56 46 41 41
11 9 8 8 8 8 9 10 11 12 13 14 18 18 20 12 13 3 15 5 6 11 24 33 40 14 6 16 37 7 6 11 11 8 5 10 51 25 51 66 71 49 47 61 60
13 11 10 10 9 8 8 9 10 11 11 12 15 17 17 10 6 7 18 7 1 19 30 37 31 40 15 19 6 27 21 16 12 12 7 32 35 27 28 56 56 50 53 44 44
15 14 12 11 11 12 12 12 10 10 10 11 12 18 22 16 8 4 11 4 5 14 24 23 28 33 35 22 48 38 17 17 25 8 4 43 37 36 45 72 65 62 53 44 36
15 14 14 15 15 14 12 11 9 8 8 7 11 20 15 12 13 22 17 23 21 21 25 22 25 32 13 29 27 12 7 8 13 3 5 24 15 39 38 59 54 49 44 39 31
15 14 15 16 17 17 14 11 6 3 2 8 14 14 17 7 16 12 13 26 27 33 29 35 25 15 16 8 13 14 11 5 8 21 10 27 25 34 36 41 58 45 48 51 47
17 13 12 14 16 17 16 10 5 4 5 11 16 17 8 18 6 9 11 20 29 28 24 10 6 4 8 9 7 10 12 12 16 18 57 54 38 34 41 52 49 42 40 45 49
17 13 9 8 12 14 18 12 8 1 12 23 28 29 46 10 6 9 6 12 20 22 6 11 7 12 24 13 6 15 14 16 11 14 33 39 37 28 36 42 47 39 36 45 50
16 12 7 6 5 11 16 14 13 24 21 35 39 41 37 32 19 27 18 13 3 13 11 9 8 24 15 12 15 15 13 5 5 20 37 34 37 28 30 35 43 43 39 45 45
15 11 7 8 10 9 14 12 23 20 8 30 23 29 25 10 11 24 14 6 9 10 11 14 8 9 14 13 15 12 14 12 3 5 38 46 15 23 31 41 43 41 43 42 40
15 9 5 4 2 11 19 30 12 17 9 12 11 11 20 10 5 8 10 9 10 12 3 8 11 21 19 20 12 17 12 16 15 14 6 7 8 12 20 24 31 28 29 34 32
14 7 3 9 8 14 32 21 22 13 5 7 9 10 19 13 6 4 5 4 3 11 14 7 13 16 21 7 10 5 8 10 6 10 7 17 15 5 15 18 18 20 24 33 31
15 6 6 6 3 24 20 25 18 10 4 6 12 11 5 17 9 14 5 7 9 8 17 6 10 11 10 5 9 2 17 19 13 8 6 10 11 5 7 8 10 16 21 28 27
14 6 7 5 3 16 20 19 10 5 12 3 11 10 12 8 8 9 6 12 2 8 11 12 12 6 9 13 18 22 14 8 10 10 8 4 20 6 17 17 18 17 18 24 19
11 3 5 5 7 15 21 10 8 11 5 12 4 4 5 7 7 7 8 10 16 11 7 7 13 16 22 8 9 7 12 10 7 6 12 16 8 6 13 21 19 18 19 19 13
6 6 11 8 11 13 8 8 10 8 8 12 11 17 17 18 9 11 10 7 8 9 10 7 5 7 15 7 6 10 5 3 8 3 6 8 8 15 15 13 14 18 15 17 11
11 4 9 6 8 5 9 6 5 9 13 13 10 10 14 15 16 7 8 11 8 11 15 3 3 7 11 19 28 11 7 11 8 4 5 7 6 8 17 12 13 17 21 19 18
13 6 9 5 4 2 6 10 6 22 23 11 8 8 7 9 12 8 10 13 12 8 27 6 7 14 11 11 8 13 12 7 6 7 4 5 4 1 6 9 12 29 21 11 9
11 6 4 6 4 4 3 8 3 15 25 14 11 13 8 12 7 10 8 12 14 9 7 9 7 2 7 10 13 6 7 4 8 5 5 11 9 6 7 9 14 14 11 13 7
14 11 11 9 6 8 16 13 8 8 8 8 10 8 3 9 8 8 13 16 37 11 4 7 7 6 17 15 14 11 11 7 10 8 2 7 5 5 6 11 15 20 14 7 7
9 8 14 20 28 3 10 10 14 14 24 11 18 15 10 15 15 6 6 16 28 16 17 10 8 10 8 14 4 11 14 9 8 7 8 2 9 10 7 9 18 10 12 17 16
15 8 13 7 15 17 10 9 9 10 15 32 20 25 9 9 12 10 8 4 13 15 10 9 5 9 10 12 23 19 18 18 13 6 5 11 4 7 11 13 18 8 23 18 18
10 12 15 13 23 13 12 9 10 6 11 8 15 17 19 11 7 7 8 4 4 6 7 8 1 7 8 20 30 24 18 19 24 19 12 9 1 9 20 36 38 25 20 20 20
15 7 7 15 16 9 6 6 6 6 30 29 27 12 17 14 29 25 13 7 5 10 5 5 5 6 7 6 10 16 17 16 15 11 5 2 1 35 19 26 24 22 22 20 18
Wind_Direction_500mb
288 278 274 273 271 270 271 278 284 295 306 304 304 312 317 317 316 294 282 326 310 330 318 313 288 308 309 274 262 263 12 269 264 261 288 12 123 163 169 131 131 132 142 133 147
312 304 288 275 275 277 277 279 289 299 301 302 304 314 321 322 323 275 311 304 320 314 286 296 309 323 316 260 237 159 152 240 212 226 226 279 260 150 123 121 97 116 106 143 150
327 317 297 292 288 282 283 290 293 292 295 298 306 318 322 329 328 357 346 324 305 269 282 304 315 321 285 278 218 212 225 249 237 300 71 34 9 59 125 315 159 145 123 142 145
347 334 318 307 296 297 298 292 289 291 291 297 306 321 325 329 319 327 348 0 233 265 299 312 317 319 308 319 300 178 244 252 289 253 42 17 30 41 77 150 140 127 127 145 137
4 351 337 328 324 313 301 294 290 289 289 297 311 329 336 309 291 326 321 253 224 291 315 319 321 309 236 318 331 101 303 319 330 354 68 26 71 90 83 116 136 125 114 110 113
9 7 11 11 1 341 327 307 296 289 287 300 313 326 321 280 266 53 1 160 326 317 328 325 326 337 293 318 1 312 309 330 325 19 92 67 35 81 69 107 114 116 110 114 117
22 20 13 360 351 339 320 307 293 282 283 295 315 320 298 278 210 279 347 338 24 331 326 343 331 339 335 323 334 341 2 341 312 8 186 104 33 94 115 105 96 103 104 101 114
17 9 358 357 354 341 325 308 292 288 287 293 317 318 277 318 296 239 266 284 290 292 269 291 304 310 314 318 343 7 41 1 306 209 26 72 86 85 100 101 95 92 91 90 96
11 359 359 6 10 12 14 16 34 49 331 314 315 312 282 291 254 244 259 274 295 296 264 280 285 309 335 43 353 4 263 307 28 13 61 86 112 92 92 91 88 79 66 56 62
7 352 353 0 360 10 11 2 7 318 290 301 274 308 265 319 208 237 237 278 289 296 301 311 224 27 15 69 251 302 16 40 57 21 78 95 94 92 99 97 92 86 89 73 71
5 353 332 339 337 351 358 12 353 344 295 282 285 267 295 339 294 265 199 251 269 291 241 323 90 254 263 226 201 102 67 51 355 76 66 91 93 86 92 93 100 99 93 87 84
359 354 320 287 282 337 355 335 23 332 301 300 290 277 279 286 288 292 251 240 255 275 329 22 226 228 233 68 75 62 53 15 325 81 93 104 93 93 80 85 102 106 97 91 93
350 350 332 261 210 318 328 326 344 347 291 300 250 254 258 234 268 267 220 283 280 278 310 145 229 49 81 61 51 33 31 359 329 104 116 111 84 103 83 76 79 83 105 105 107
341 344 336 260 271 315 4 4 341 348 54 280 184 244 239 239 295 156 235 347 326 285 108 76 16 79 48 34 67 32 331 9 4 37 306 183 120 101 97 82 67 55 71 91 97
339 327 299 230 280 356 351 345 340 315 42 237 205 177 182 181 144 243 277 331 282 289 64 296 72 65 62 75 70 250 338 352 9 8 72 355 86 132 144 70 63 70 74 86 98
332 296 257 242 360 358 340 327 325 47 274 227 177 178 166 217 224 208 205 258 310 27 40 40 58 59 154 160 98 257 28 18 26 31 45 314 108 25 56 128 111 96 97 98 99
326 281 237 246 18 341 335 346 41 99 315 155 194 168 196 248 202 180 154 19 130 59 4 360 344 13 31 28 4 44 47 359 0 7 241 31 70 104 99 102 126 140 123 112 108
330 222 183 121 11 339 354 51 54 267 20 333 19 182 198 219 198 168 116 78 22 71 76 77 12 20 341 51 333 309 133 149 245 230 267 33 74 104 136 129 128 124 126 119 126
357 140 134 86 45 353 11 64 215 316 346 3 16 46 5 349 103 112 68 62 55 25 108 61 325 337 33 14 66 301 12 198 119 12 63 115 103 140 130 123 141 158 169 185 174
41 125 117 79 28 20 70 236 266 26 7 39 60 29 24 351 21 48 66 334 85 51 84 343 29 18 322 42 5 61 271 20 8 313 279 82 78 334 154 188 182 193 202 207 180
35 82 64 240 254 18 139 234 278 51 39 52 25 26 16 38 20 27 28 37 33 26 61 59 75 309 32 33 8 350 347 33 128 103 20 349 163 45 105 151 166 200 189 210 250
34 55 26 301 38 56 181 223 128 57 41 30 74 67 35 34 40 58 75 23 35 63 56 340 120 32 261 268 52 59 343 88 116 316 120 150 235 321 148 170 188 197 243 244 265
6 341 17 359 53 338 323 340 66 55 57 35 43 32 12 30 58 70 72 9 66 66 80 353 21 19 344 346 359 42 354 41 90 85 198 145 216 234 138 183 228 244 255 198 73
25 20 12 44 32 95 7 347 7 32 47 50 26 17 12 34 24 116 114 35 52 59 53 111 92 143 191 237 255 64 24 19 89 101 147 254 165 217 215 215 214 221 169 95 59
27 41 9 329 345 343 33 357 27 356 72 29 27 42 65 53 43 47 73 61 47 74 52 86 50 13 309 317 86 91 67 55 67 68 91 170 222 201 236 239 252 163 105 61 57
39 12 352 310 328 359 356 323 21 359 42 53 98 58 56 77 52 38 89 106 186 54 73 21 274 51 320 72 80 63 29 81 86 91 89 134 166 154 86 96 93 91 78 78 75
45 37 347 348 346 19 278 316 10 104 58 107 111 86 45 339 334 320 287 254 250 147 112 102 111 63 290 332 129 46 42 78 79 43 109 47 358 113 85 91 85 88 95 70 31
Wind_Speed_850mb
8 10 10 11 11 12 12 13 13 13 15 16 19 22 28 32 27 22 13 6 12 20 17 10 18 22 30 28 35 25 3 10 11 8 13 14 12 34 13 48 10 8 25 40 59
7 6 7 9 10 10 11 12 12 13 14 17 19 23 28 30 24 19 13 15 18 19 15 20 29 39 21 15 9 11 6 15 17 9 6 3 2 29 19 26 23 37 49 66 62
5 5 6 7 8 10 10 11 12 13 14 16 19 23 26 27 23 5 9 16 10 12 16 22 32 30 12 9 19 12 16 17 14 13 11 19 24 15 46 3 52 64 62 58 55
8 7 7 7 8 9 10 11 12 13 14 16 19 20 24 19 3 8 19 14 4 12 18 25 24 30 11 10 24 8 30 42 34 13 13 8 10 36 21 20 44 56 46 41 41
11 9 8 8 8 8 9 10 11 12 13 14 18 18 20 12 13 3 15 5 6 11 24 33 40 14 6 16 37 7 6 11 11 8 5 10 51 25 51 66 71 49 47 61 60
13 11 10 10 9 8 8 9 10 11 11 12 15 17 17 10 6 7 18 7 1 19 30 37 31 40 15 19 6 27 21 16 12 12 7 32 35 27 28 56 56 50 53 44 44
15 14 12 11 11 12 12 12 10 10 10 11 12 18 22 16 8 4 11 4 5 14 24 23 28 33 35 22 48 38 17 17 25 8 4 43 37 36 45 72 65 62 53 44 36
15 14 14 15 15 14 12 11 9 8 8 7 11 20 15 12 13 22 17 23 21 21 25 22 25 32 13 29 27 12 7 8 13 3 5 24 15 39 38 59 54 49 44 39 31
15 14 15 16 17 17 14 11 6 3 2 8 14 14 17 7 16 12 13 26 27 33 29 35 25 15 16 8 13 14 11 5 8 21 10 27 25 34 36 41 58 45 48 51 47
17 13 12 14 16 17 16 10 5 4 5 11 16 17 8 18 6 9 11 20 29 28 24 10 6 4 8 9 7 10 12 12 16 18 57 54 38 34 41 52 49 42 40 45 49
17 13 9 8 12 14 18 12 8 1 12 23 28 29 46 10 6 9 6 12 20 22 6 11 7 12 24 13 6 15 14 16 11 14 33 39 37 28 36 42 47 39 36 45 50
16 12 7 6 5 11 16 14 13 24 21 35 39 41 37 32 19 27 18 13 3 13 11 9 8 24 15 12 15 15 13 5 5 20 37 34 37 28 30 35 43 43 39 45 45
15 11 7 8 10 9 14 12 23 20 8 30 23 29 25 10 11 24 14 6 9 10 11 14 8 9 14 13 15 12 14 12 3 5 38 46 15 23 31 41 43 41 43 42 40
15 9 5 4 2 11 19 30 12 17 9 12 11 11 20 10 5 8 10 9 10 12 3 8 11 21 19 20 12 17 12 16 15 14 6 7 8 12 20 24 31 28 29 34 32
14 7 3 9 8 14 32 21 22 13 5 7 9 10 19 13 6 4 5 4 3 11 14 7 13 16 21 7 10 5 8 10 6 10 7 17 15 5 15 18 18 20 24 33 31
15 6 6 6 3 24 20 25 18 10 4 6 12 11 5 17 9 14 5 7 9 8 17 6 10 11 10 5 9 2 17 19 13 8 6 10 11 5 7 8 10 16 21 28 27
14 6 7 5 3 16 20 19 10 5 12 3 11 10 12 8 8 9 6 12 2 8 11 12 12 6 9 13 18 22 14 8 10 10 8 4 20 6 17 17 18 17 18 24 19
11 3 5 5 7 15 21 10 8 11 5 12 4 4 5 7 7 7 8 10 16 11 7 7 13 16 22 8 9 7 12 10 7 6 12 16 8 6 13 21 19 18 19 19 13
6 6 11 8 11 13 8 8 10 8 8 12 11 17 17 18 9 11 10 7 8 9 10 7 5 7 15 7 6 10 5 3 8 3 6 8 8 15 15 13 14 18 15 17 11
11 4 9 6 8 5 9 6 5 9 13 13 10 10 14 15 16 7 8 11 8 11 15 3 3 7 11 19 28 11 7 11 8 4 5 7 6 8 17 12 13 17 21 19 18
13 6 9 5 4 2 6 10 6 22 23 11 8 8 7 9 12 8 10 13 12 8 27 6 7 14 11 11 8 13 12 7 6 7 4 5 4 1 6 9 12 29 21 11 9
11 6 4 6 4 4 3 8 3 15 25 14 11 13 8 12 7 10 8 12 14 9 7 9 7 2 7 10 13 6 7 4 8 5 5 11 9 6 7 9 14 14 11 13 7
14 11 11 9 6 8 16 13 8 8 8 8 10 8 3 9 8 8 13 16 37 11 4 7 7 6 17 15 14 11 11 7 10 8 2 7 5 5 6 11 15 20 14 7 7
9 8 14 20 28 3 10 10 14 14 24 11 18 15 10 15 15 6 6 16 28 16 17 10 8 10 8 14 4 11 14 9 8 7 8 2 9 10 7 9 18 10 12 17 16
15 8 13 7 15 17 10 9 9 10 15 32 20 25 9 9 12 10 8 4 13 15 10 9 5 9 10 12 23 19 18 18 13 6 5 11 4 7 11 13 18 8 23 18 18
10 12 15 13 23 13 12 9 10 6 11 8 15 17 19 11 7 7 8 4 4 6 7 8 1 7 8 20 30 24 18 19 24 19 12 9 1 9 20 36 38 25 20 20 20
15 7 7 15 16 9 6 6 6 6 30 29 27 12 17 14 29 25 13 7 5 10 5 5 5 6 7 6 10 16 17 16 15 11 5 2 1 35 19 26 24 22 22 20 18
Wind_Direction_850mb
288 278 274 273 271 270 271 278 284 295 306 304 304 312 317 317 316 294 282 326 310 330 318 313 288 308 309 274 262 263 12 269 264 261 288 12 123 163 169 131 131 132 142 133 147
312 304 288 275 275 277 277 279 289 299 301 302 304 314 321 322 323 275 311 304 320 314 286 296 309 323 316 260 237 159 152 240 212 226 226 279 260 150 123 121 97 116 106 143 150
327 317 297 292 288 282 283 290 293 292 295 298 306 318 322 329 328 357 346 324 305 269 282 304 315 321 285 278 218 212 225 249 237 300 71 34 9 59 125 315 159 145 123 142 145
347 334 318 307 296 297 298 292 289 291 291 297 306 321 325 329 319 327 348 0 233 265 299 312 317 319 308 319 300 178 244 252 289 253 42 17 30 41 77 150 140 127 127 145 137
4 351 337 328 324 313 301 294 290 289 289 297 311 329 336 309 291 326 321 253 224 291 315 319 321 309 236 318 331 101 303 319 330 354 68 26 71 90 83 116 136 125 114 110 113
9 7 11 11 1 341 327 307 296 289 287 300 313 326 321 280 266 53 1 160 326 317 328 325 326 337 293 318 1 312 309 330 325 19 92 67 35 81 69 107 114 116 110 114 117
22 20 13 360 351 339 320 307 293 282 283 295 315 320 298 278 210 279 347 338 24 331 326 343 331 339 335 323 334 341 2 341 312 8 186 104 33 94 115 105 96 103 104 101 114
17 9 358 357 354 341 325 308 292 288 287 293 317 318 277 318 296 239 266 284 290 292 269 291 304 310 314 318 343 7 41 1 306 209 26 72 86 85 100 101 95 92 91 90 96
11 359 359 6 10 12 14 16 34 49 331 314 315 312 282 291 254 244 259 274 295 296 264 280 285 309 335 43 353 4 263 307 28 13 61 86 112 92 92 91 88 79 66 56 62
7 352 353 0 360 10 11 2 7 318 290 301 274 308 265 319 208 237 237 278 289 296 301 311 224 27 15 69 251 302 16 40 57 21 78 95 94 92 99 97 92 86 89 73 71
5 353 332 339 337 351 358 12 353 344 295 282 285 267 295 339 294 265 199 251 269 291 241 323 90 254 263 226 201 102 67 51 355 76 66 91 93 86 92 93 100 99 93 87 84
359 354 320 287 282 337 355 335 23 332 301 300 290 277 279 286 288 292 251 240 255 275 329 22 226 228 233 68 75 62 53 15 325 81 93 104 93 93 80 85 102 106 97 91 93
350 350 332 261 210 318 328 326 344 347 291 300 250 254 258 234 268 267 220 283 280 278 310 145 229 49 81 61 51 33 31 359 329 104 116 111 84 103 83 76 79 83 105 105 107
341 344 336 260 271 315 4 4 341 348 54 280 184 244 239 239 295 156 235 347 326 285 108 76 16 79 48 34 67 32 331 9 4 37 306 183 120 101 97 82 67 55 71 91 97
339 327 299 230 280 356 351 345 340 315 42 237 205 177 182 181 144 243 277 331 282 289 64 296 72 65 62 75 70 250 338 352 9 8 72 355 86 132 144 70 63 70 74 86 98
332 296 257 242 360 358 340 327 325 47 274 227 177 178 166 217 224 208 205 258 310 27 40 40 58 59 154 160 98 257 28 18 26 31 45 314 108 25 56 128 111 96 97 98 99
326 281 237 246 18 341 335 346 41 99 315 155 194 168 196 248 202 180 154 19 130 59 4 360 344 13 31 28 4 44 47 359 0 7 241 31 70 104 99 102 126 140 123 112 108
330 222 183 121 11 339 354 51 54 267 20 333 19 182 198 219 198 168 116 78 22 71 76 77 12 20 341 51 333 309 133 149 245 230 267 33 74 104 136 129 128 124 126 119 126
357 140 134 86 45 353 11 64 215 316 346 3 16 46 5 349 103 112 68 62 55 25 108 61 325 337 33 14 66 301 12 198 119 12 63 115 103 140 130 123 141 158 169 185 174
41 125 117 79 28 20 70 236 266 26 7 39 60 29 24 351 21 48 66 334 85 51 84 343 29 18 322 42 5 61 271 20 8 313 279 82 78 334 154 188 182 193 202 207 180
35 82 64 240 254 18 139 234 278 51 39 52 25 26 16 38 20 27 28 37 33 26 61 59 75 309 32 33 8 350 347 33 128 103 20 349 163 45 105 151 166 200 189 210 250
34 55 26 301 38 56 181 223 128 57 41 30 74 67 35 34 40 58 75 23 35 63 56 340 120 32 261 268 52 59 343 88 116 316 120 150 235 321 148 170 188 197 243 244 265
6 341 17 359 53 338 323 340 66 55 57 35 43 32 12 30 58 70 72 9 66 66 80 353 21 19 344 346 359 42 354 41 90 85 198 145 216 234 138 183 228 244 255 198 73
25 20 12 44 32 95 7 347 7 32 47 50 26 17 12 34 24 116 114 35 52 59 53 111 92 143 191 237 255 64 24 19 89 101 147 254 165 217 215 215 214 221 169 95 59
27 41 9 329 345 343 33 357 27 356 72 29 27 42 65 53 43 47 73 61 47 74 52 86 50 13 309 317 86 91 67 55 67 68 91 170 222 201 236 239 252 163 105 61 57
39 12 352 310 328 359 356 323 21 359 42 53 98 58 56 77 52 38 89 106 186 54 73 21 274 51 320 72 80 63 29 81 86 91 89 134 166 154 86 96 93 91 78 78 75
45 37 347 348 346 19 278 316 10 104 58 107 111 86 45 339 334 320 287 254 250 147 112 102 111 63 290 332 129 46 42 78 79 43 109 47 358 113 85 91 85 88 95 70 31